Location: Forli
(44.2227°N, 12.0407°E)
Time: 13:40:35
(UTC+02:00)

UWE-3 - Pass Details

Date: 19 April 2026
Orbit: 542 x 613 km, 97.9° (Epoch: 10 May)

Event Time Altitude Azimuth Distance (km) Brightness Sun altitude
Rises 03:45:46 0° 18° (NNE) 2,737 ? -24.5°
Reaches altitude 10° 03:47:59 10° 23° (NNE) 1,830 ? -24.2°
Maximum altitude 03:51:49 50° 100° (E) 702 ? -23.7°
Enters shadow 03:52:10 48° 120° (ESE) 719 ? -23.7°
